DELTA 1 DEB, 1529

Orbit data source: Space-Track

DELTA 1 DEB, 1529 is space debris in SSO originally from a launch on Fri, 02 Jul 1965 UTC launched from the Air Force Eastern Test Range (AFETR). Debris objects in space refer to the collection of defunct objects orbiting the Earth. Examples of debris include non-operational satellites, rocket bodies, and fragments generated from explosions, collisions, or faulty payload assembly.

Loading next visibility...
Identifier
1529, 1965-051D
Orbit
SSO
Country
Flag of USUS
Related business
Manufacturer
Unknown
Mission
Spacecraft
Bus & Motor
Unknown
Mass
1 kg wet, 1 kg dry
Launch date (UTC)
1965-07-02 (61 years ago)
Launch vehicle
Unknown
Launch site
Air Force Eastern Test Range (AFETR)
Object type
Payload
Rocket body
Debris
Shape & HBR
Unknown
Radar Cross Section
Small (<0.1 m²)

Expand to show TLE details & history
Last TLE update: 1 day ago

TLE from 1 day ago
0 DELTA 1 DEB
1 01529U 65051D   26144.16129181  .00000138  00000-0  79605-4 0  9993
2 01529  98.9867  23.2379 0035060 294.6432  65.1096 14.24259251152028
Epoch: 2026-05-24T03:52Z
TLE epoch observation values (Epoch: 2026-05-24T03:52:15.612Z)
Latitude
-0.00001°
Longitude
83.40544°
Altitude
803.358 km
Speed
7.457 km/s
True Right ascension
01h 32m 57s
True Declination
0° 00' 00"
Sunlit
Object was in daylight at epoch
Visualization orbit readout
Latitude
Unknown
Longitude
Unknown
Altitude
Unknown
Speed
Unknown
Apparent Right ascension
Unknown
Apparent Declination
Unknown
Sunlit
N/A
Visualization observer readout
Local Sidereal Time
14:40:30
Azimuth
Unknown
Elevation
Unknown
Doppler factor
Unknown
Orbital elements
Apogee altitude
833.346 km
Perigee altitude
782.955 km
Semi-major axis
7,186.288 km
Eccentricity
0.00351
Inclination
98.9867°
RAAN
23.2379°
Arg. of periapsis
294.6432°
True anomaly
65.47471°
Mean anomaly
65.1096°
Eccentric anomaly
65.29209°
Mean motion
3.56276 °/min
Orbital period
101.05 mins
BSTAR
0.000079605
Loading maneuver chart data...
Computing Atmospheric mass density...
Loading historical data...
Loading historical data...
Loading historical data...
Loading historical data...
Loading historical data...
Loading historical data...
Loading historical data...
Other satellites on launch #51 in the year 1965 (1965-07-02 UTC)

Documentation

Showing up to 5 results
|